Location: Unspecified
(0.0000°N, 0.0000°E)
Time: 23:09:39
(UTC+00:00)

Hubble Space Telescope - Visible Passes

Search period start: 21 February 2018 00:00
Search period end: 03 March 2018 00:00
Orbit: 537 x 541 km, 28.5° (Epoch: 20 February)

Date Brightness Start Highest point End Pass type
(mag) Time Alt. Az. Time Alt. Az. Time Alt. Az.
27 Feb 3.2 20:05:13 10° SSW 20:06:18 15° SSW 20:06:18 15° SSW visible
28 Feb 2.5 19:54:35 10° SW 19:56:50 25° SSW 19:56:50 25° SSW visible
01 Mar 1.5 19:44:06 10° SW 19:47:26 43° S 19:47:26 43° S visible
02 Mar 0.6 19:33:42 10° SW 19:37:50 71° SSE 19:38:05 68° ESE visible
